This demonstration page uses our WeatherBlox Daily Observations layout. Learn more.

Hourly Observations for September 3, 2016

Temp ( °F °C ) Dew Point ( °F °C ) Humidity (%) Winds ( mph kmh ) Pressure ( in mb ) Visibility ( mi km ) Precip ( " mm )
12:15 am 00:15 Partly Cloudy 65 18.1 55 12.8 71 71 SSE 17 28 29.97 1015 10 16.09344 0 0
12:35 am 00:35 Partly Cloudy 65 18.2 55 12.8 71 71 SSE 21 33 29.97 1015 10 16.09344 0 0
12:55 am 00:55 Partly Cloudy 65 18.1 55 12.6 70 70 SSE 16 26 29.97 1015 10 16.09344 0 0
1:15 am 01:15 Partly Cloudy 65 18.2 55 12.6 70 70 SSE 16 26 29.97 1015 10 16.09344 0 0
1:35 am 01:35 Partly Cloudy 64 18 55 12.5 70 70 SSE 13 20 29.97 1015 10 16.09344 0 0
1:55 am 01:55 Partly Cloudy 64 18 55 12.5 70 70 SSE 14 22 29.97 1015 10 16.09344 0 0
2:15 am 02:15 Mostly Cloudy 65 18.1 55 12.5 70 70 SSE 15 24 29.97 1015 10 16.09344 0 0
2:35 am 02:35 Partly Cloudy 64 18 55 12.5 70 70 SSE 16 26 29.97 1015 10 16.09344 0 0
2:55 am 02:55 Mostly Cloudy 64 18 55 12.5 70 70 SSE 14 22 29.97 1015 10 16.09344 0 0
3:15 am 03:15 Cloudy 64 18 55 12.5 70 70 S 13 20 29.97 1015 10 16.09344 0 0
3:35 am 03:35 Cloudy 64 18 55 12.6 71 71 S 16 26 29.97 1015 10 16.09344 0 0
3:55 am 03:55 Partly Cloudy 63 17.4 55 12.7 74 74 SSE 14 22 29.97 1015 10 16.09344 0 0
4:15 am 04:15 Partly Cloudy 63 17.1 55 13 77 77 S 15 24 29.97 1015 10 16.09344 0 0
4:35 am 04:35 Mostly Cloudy 63 17.3 55 13 76 76 SSE 17 28 29.94 1014 10 16.09344 0 0
4:55 am 04:55 Mostly Cloudy 63 17.2 55 13 76 76 SSE 16 26 29.94 1014 10 16.09344 0 0
5:15 am 05:15 Partly Cloudy 62 16.7 55 13 79 79 SSE 15 24 29.94 1014 10 16.09344 0 0
5:35 am 05:35 Clear 62 16.5 55 13 80 80 S 14 22 29.94 1014 10 16.09344 0 0
5:55 am 05:55 Clear 62 16.4 55 13 80 80 SSE 13 20 29.94 1014 10 16.09344 0 0
6:15 am 06:15 Mostly Cloudy 62 16.5 55 13 80 80 SSE 14 22 29.94 1014 10 16.09344 0 0
6:35 am 06:35 Cloudy 62 16.5 55 13 80 80 SSE 14 22 29.94 1014 10 16.09344 0 0
6:55 am 06:55 Cloudy 62 16.5 55 13 80 80 SSE 14 22 29.94 1014 10 16.09344 0 0
7:15 am 07:15 Cloudy 62 16.6 55 12.8 78 78 SSE 15 24 29.94 1014 10 16.09344 0 0
7:35 am 07:35 Cloudy 62 16.6 55 12.7 78 78 SSE 15 24 29.94 1014 10 16.09344 0 0
7:55 am 07:55 Cloudy 62 16.6 55 12.7 78 78 SSE 14 22 29.94 1014 10 16.09344 0 0
8:15 am 08:15 Cloudy 62 16.8 55 12.6 76 76 SSE 12 19 29.94 1014 10 16.09344 0 0
8:35 am 08:35 Cloudy 63 17 55 12.7 76 76 SSE 14 22 29.94 1014 10 16.09344 0 0
8:55 am 08:55 Cloudy 63 17.1 55 12.7 75 75 SSE 14 22 29.94 1014 10 16.09344 0 0
9:15 am 09:15 Cloudy 63 17 55 12.8 76 76 SSE 15 24 29.94 1014 10 16.09344 0 0
9:35 am 09:35 Cloudy 63 17.2 55 12.9 76 76 SSE 14 22 29.94 1014 10 16.09344 0 0
9:55 am 09:55 Cloudy 63 17.2 55 13 76 76 SSE 14 22 29.94 1014 10 16.09344 0 0
10:15 am 10:15 Cloudy 64 17.5 55 13 75 75 SSE 15 24 29.94 1014 10 16.09344 0 0
10:35 am 10:35 Cloudy 64 17.6 56 13.2 76 76 SSE 13 20 29.94 1014 10 16.09344 0 0
10:55 am 10:55 Cloudy 64 18 56 13.3 74 74 SSE 15 24 29.94 1014 10 16.09344 0 0
11:15 am 11:15 Cloudy 65 18.3 56 13.5 74 74 SSE 14 22 29.94 1014 10 16.09344 0 0
11:35 am 11:35 Cloudy 65 18.2 57 13.7 75 75 SSE 15 24 29.94 1014 10 16.09344 0 0
11:55 am 11:55 Cloudy 65 18.6 57 14 75 75 SSE 18 30 29.94 1014 10 16.09344 0 0
12:15 pm 12:15 Cloudy 66 18.9 58 14.4 75 75 SSE 14 22 29.94 1014 10 16.09344 0 0
12:35 pm 12:35 Cloudy 67 19.6 58 14.6 73 73 SSE 16 26 29.91 1013 10 16.09344 0 0
12:55 pm 12:55 Cloudy 68 20.1 58 14.7 71 71 SSE 15 24 29.91 1013 10 16.09344 0 0
1:15 pm 13:15 Cloudy 69 20.4 58 14.6 69 69 SSE 14 22 29.88 1012 10 16.09344 0 0
1:35 pm 13:35 Cloudy 69 20.6 58 14.7 69 69 SSE 14 22 29.88 1012 10 16.09344 0 0
1:55 pm 13:55 Cloudy 70 21.1 59 15 68 68 SSE 15 24 29.88 1012 10 16.09344 0 0
2:15 pm 14:15 Cloudy 71 21.6 60 15.4 68 68 SSE 16 26 29.88 1012 10 16.09344 0 0
2:35 pm 14:35 Cloudy 71 21.9 60 15.5 67 67 SSE 17 28 29.88 1012 10 16.09344 0 0
2:55 pm 14:55 Cloudy 72 22.3 61 16.1 68 68 SSE 15 24 29.88 1012 10 16.09344 0 0
3:15 pm 15:15 Cloudy 73 22.9 62 16.5 67 67 SSE 18 30 29.83 1010 10 16.09344 0 0
3:35 pm 15:35 Cloudy 75 23.9 63 17 65 65 SSE 15 24 29.83 1010 10 16.09344 0 0
3:55 pm 15:55 Mostly Cloudy 76 24.6 63 17 63 63 SSE 16 26 29.83 1010 10 16.09344 0 0
4:15 pm 16:15 Mostly Cloudy 78 25.5 64 17.5 61 61 SE 15 24 29.8 1009 10 16.09344 0 0
4:35 pm 16:35 Mostly Cloudy 78 25.8 64 17.6 61 61 SE 18 30 29.8 1009 10 16.09344 0 0
4:55 pm 16:55 Mostly Cloudy 78 25.8 64 17.6 61 61 SE 18 30 29.8 1009 10 16.09344 0 0
5:15 pm 17:15 Mostly Cloudy 79 26.1 64 17.6 60 60 SE 18 30 29.77 1008 10 16.09344 0 0
5:35 pm 17:35 Partly Cloudy 79 26 64 17.7 60 60 SE 21 33 29.77 1008 10 16.09344 0 0
5:55 pm 17:55 Sunny 77 25.2 64 17.7 63 63 SE 15 24 29.8 1009 10 16.09344 0 0
6:15 pm 18:15 Sunny 77 25.2 64 17.8 64 64 SE 16 26 29.77 1008 10 16.09344 0 0
6:35 pm 18:35 Sunny 77 25 64 18 65 65 SE 14 22 29.77 1008 10 16.09344 0 0
6:55 pm 18:55 Sunny 76 24.6 65 18.2 68 68 SE 14 22 29.77 1008 10 16.09344 0 0
7:15 pm 19:15 Sunny 76 24.5 65 18.2 68 68 SE 16 26 29.77 1008 10 16.09344 0 0
7:35 pm 19:35 Sunny 76 24.5 65 18.2 68 68 SSE 16 26 29.77 1008 10 16.09344 0 0
7:55 pm 19:55 Sunny 76 24.2 65 18.1 69 69 SE 15 24 29.77 1008 10 16.09344 0 0
8:15 pm 20:15 Clear 75 23.8 64 18 70 70 SSE 15 24 29.77 1008 10 16.09344 0 0
8:35 pm 20:35 Clear with Light Rain 74 23.5 64 18 71 71 SE 15 24 29.77 1008 10 16.09344 0 0
8:55 pm 20:55 Clear with Light Rain 73 22.9 65 18.1 74 74 SE 12 19 29.77 1008 10 16.09344 0 0
9:15 pm 21:15 Clear with Light Drizzle 73 22.6 65 18.1 76 76 SE 15 24 29.77 1008 10 16.09344 0 0
9:35 pm 21:35 Mostly Cloudy with Light Rain 72 22 65 18.5 81 81 SE 9 15 29.77 1008 10 16.09344 0 0
9:55 pm 21:55 Mostly Cloudy with Light Rain 71 21.8 65 18.3 81 81 SSE 22 35 29.74 1007 10 16.09344 0 0
10:15 pm 22:15 Mostly Cloudy with Light Rain 71 21.5 65 18.5 83 83 SSE 21 33 29.71 1006 10 16.09344 0.01 0.254
10:35 pm 22:35 Mostly Cloudy 71 21.6 65 18.3 82 82 S 37 59 29.71 1006 10 16.09344 0.01 0.254
10:55 pm 22:55 Cloudy 70 21.3 66 18.8 86 86 S 30 48 29.77 1008 10 16.09344 0.01 0.254
11:15 pm 23:15 Cloudy with Light Rain 70 21.1 66 18.7 86 86 S 37 59 29.8 1009 10 16.09344 0.01 0.254
11:35 pm 23:35 Cloudy with Rain 69 20.7 66 18.8 89 89 S 22 35 29.83 1010 7 11.265408 0.04 1.016
11:55 pm 23:55 Cloudy with Light Rain 69 20.6 66 18.7 89 89 S 24 39 29.83 1010 10 16.09344 0.06 1.524

Powered by AerisWeather